| time (UTC) | temp F | wind direction | speed MPH | gust MPH | rain 1hr in | rain 24hr in | rain mn in | humidity % | barometer mb |
| 20260502160544 | 55 | 328 | 2.0 | 10.0 | 0.00 | 0.00 | 0.00 | 55 | 1020.7 |
| 20260502152044 | 54 | 312 | 2.0 | 9.0 | 0.00 | 0.00 | 0.00 | 64 | 1020.6 |
| 20260502151609 | 54 | 331 | 4.0 | 10.0 | 0.00 | 0.00 | 0.00 | 62 | 1020.7 |
| 20260502151043 | 54 | 329 | 5.0 | 12.0 | 0.00 | 0.00 | 0.00 | 64 | 1020.6 |
| 20260502150546 | 54 | 310 | 2.0 | 12.0 | 0.00 | 0.00 | 0.00 | 63 | 1020.4 |
| 20260502130545 | 45 | 281 | 1.0 | 4.0 | 0.00 | 0.00 | 0.00 | 82 | 1019.7 |
| 20260502123545 | 42 | 0 | 0.0 | 1.0 | 0.00 | 0.00 | 0.00 | 86 | 1019.5 |
| 20260502123051 | 42 | 326 | 0.0 | 1.0 | 0.00 | 0.00 | 0.00 | 86 | 1019.5 |
| 20260502122546 | 41 | 0 | 0.0 | 0.0 | 0.00 | 0.00 | 0.00 | 87 | 1019.5 |
| 20260502122043 | 41 | 0 | 0.0 | 0.0 | 0.00 | 0.00 | 0.00 | 87 | 1019.4 |
| 20260502121552 | 40 | 0 | 0.0 | 0.0 | 0.00 | 0.00 | 0.00 | 87 | 1019.3 |
| 20260502121046 | 40 | 0 | 0.0 | 0.0 | 0.00 | 0.00 | 0.00 | 87 | 1019.3 |
| 20260502120543 | 40 | 0 | 0.0 | 0.0 | 0.00 | 0.00 | 0.00 | 87 | 1019.3 |
| 20260502115548 | 40 | 0 | 0.0 | 0.0 | 0.00 | 0.00 | 0.00 | 88 | 1019.1 |
| 20260502115043 | 40 | 0 | 0.0 | 0.0 | 0.00 | 0.00 | 0.00 | 88 | 1019.1 |
| 20260502114607 | 40 | 0 | 0.0 | 0.0 | 0.00 | 0.00 | 0.00 | 88 | 1019.0 |
| 20260502114043 | 39 | 0 | 0.0 | 0.0 | 0.00 | 0.00 | 0.00 | 89 | 1018.9 |
| 20260502113550 | 39 | 0 | 0.0 | 0.0 | 0.00 | 0.00 | 0.00 | 89 | 1018.9 |
| 20260502113057 | 39 | 0 | 0.0 | 0.0 | 0.00 | 0.00 | 0.00 | 88 | 1018.8 |
| 20260502112547 | 39 | 0 | 0.0 | 0.0 | 0.00 | 0.00 | 0.00 | 87 | 1018.9 |
| 20260502112043 | 39 | 0 | 0.0 | 0.0 | 0.00 | 0.00 | 0.00 | 87 | 1018.9 |
| 20260502111556 | 39 | 0 | 0.0 | 0.0 | 0.00 | 0.00 | 0.00 | 88 | 1018.8 |
| 20260502111047 | 39 | 0 | 0.0 | 0.0 | 0.00 | 0.00 | 0.00 | 88 | 1018.8 |
| 20260502110547 | 39 | 0 | 0.0 | 0.0 | 0.00 | 0.00 | 0.00 | 89 | 1018.7 |
| 20260502110054 | 39 | 0 | 0.0 | 0.0 | 0.00 | 0.00 | 0.00 | 89 | 1018.7 |
| 20260502105543 | 39 | 0 | 0.0 | 0.0 | 0.00 | 0.00 | 0.00 | 90 | 1018.7 |
| 20260502105041 | 38 | 0 | 0.0 | 0.0 | 0.00 | 0.00 | 0.00 | 90 | 1018.7 |
| 20260502104553 | 38 | 0 | 0.0 | 0.0 | 0.00 | 0.00 | 0.00 | 90 | 1018.7 |
| 20260502104041 | 38 | 0 | 0.0 | 0.0 | 0.00 | 0.00 | 0.00 | 89 | 1018.6 |
| 20260502103541 | 38 | 0 | 0.0 | 0.0 | 0.00 | 0.00 | 0.00 | 89 | 1018.6 |
| 20260502103054 | 38 | 0 | 0.0 | 0.0 | 0.00 | 0.00 | 0.00 | 89 | 1018.6 |
| 20260502102849 | 38 | 0 | 0.0 | 0.0 | 0.00 | 0.00 | 0.00 | 88 | 1018.4 |
| 20260502102042 | 39 | 0 | 0.0 | 0.0 | 0.00 | 0.00 | 0.00 | 88 | 1018.4 |
| 20260502101620 | 39 | 0 | 0.0 | 0.0 | 0.00 | 0.00 | 0.00 | 87 | 1018.4 |
| 20260502101044 | 39 | 0 | 0.0 | 0.0 | 0.00 | 0.00 | 0.00 | 87 | 1018.4 |
| 20260502100545 | 39 | 0 | 0.0 | 0.0 | 0.00 | 0.00 | 0.00 | 87 | 1018.3 |
| 20260502091043 | 40 | 0 | 0.0 | 0.0 | 0.00 | 0.00 | 0.00 | 83 | 1017.9 |
| 20260502090542 | 41 | 0 | 0.0 | 0.0 | 0.00 | 0.00 | 0.00 | 83 | 1017.7 |
| 20260502090108 | 41 | 0 | 0.0 | 0.0 | 0.00 | 0.00 | 0.00 | 83 | 1017.8 |
| 20260502080105 | 41 | 0 | 0.0 | 0.0 | 0.00 | 0.00 | 0.00 | 84 | 1017.7 |
| 20260502070644 | 42 | 0 | 0.0 | 1.0 | 0.00 | 0.00 | 0.00 | 81 | 1018.1 |
| 20260502070555 | 42 | 0 | 0.0 | 1.0 | 0.00 | 0.00 | 0.00 | 81 | 1018.1 |
| 20260502070107 | 43 | 167 | 0.0 | 1.0 | 0.00 | 0.00 | 0.00 | 82 | 1018.0 |
| 20260502065543 | 42 | 0 | 0.0 | 0.0 | 0.00 | 0.00 | 0.00 | 81 | 1018.1 |
| 20260502065043 | 42 | 0 | 0.0 | 2.0 | 0.00 | 0.00 | 0.00 | 83 | 1018.1 |
| 20260502064558 | 42 | 0 | 0.0 | 2.0 | 0.00 | 0.00 | 0.00 | 83 | 1018.2 |
| 20260502064043 | 42 | 27 | 0.0 | 2.0 | 0.00 | 0.00 | 0.00 | 83 | 1018.2 |
| 20260502063543 | 42 | 0 | 1.0 | 2.0 | 0.00 | 0.00 | 0.00 | 82 | 1018.2 |
| 20260502063058 | 43 | 190 | 0.0 | 0.0 | 0.00 | 0.00 | 0.00 | 82 | 1018.2 |
| 20260502062547 | 43 | 0 | 0.0 | 0.0 | 0.00 | 0.00 | 0.00 | 81 | 1018.1 |
| 20260502062042 | 43 | 0 | 0.0 | 0.0 | 0.00 | 0.00 | 0.00 | 81 | 1018.1 |
| 20260502061554 | 44 | 0 | 0.0 | 0.0 | 0.00 | 0.00 | 0.00 | 80 | 1018.2 |
| 20260502061044 | 44 | 0 | 0.0 | 0.0 | 0.00 | 0.00 | 0.00 | 79 | 1018.2 |
| 20260502060544 | 44 | 0 | 0.0 | 0.0 | 0.00 | 0.00 | 0.00 | 78 | 1018.1 |
| 20260502060055 | 44 | 0 | 0.0 | 0.0 | 0.00 | 0.00 | 0.00 | 78 | 1018.2 |
| 20260502055544 | 44 | 0 | 0.0 | 0.0 | 0.00 | 0.00 | 0.00 | 78 | 1018.2 |
| 20260502055044 | 44 | 0 | 0.0 | 0.0 | 0.00 | 0.00 | 0.00 | 77 | 1018.2 |
| 20260502054557 | 45 | 0 | 0.0 | 0.0 | 0.00 | 0.00 | 0.00 | 77 | 1018.2 |
| 20260502054044 | 45 | 0 | 0.0 | 0.0 | 0.00 | 0.00 | 0.00 | 76 | 1018.2 |
| 20260502053543 | 45 | 0 | 0.0 | 0.0 | 0.00 | 0.00 | 0.00 | 76 | 1018.2 |
| 20260502053055 | 45 | 0 | 0.0 | 0.0 | 0.00 | 0.00 | 0.00 | 75 | 1018.2 |
| 20260502052603 | 45 | 0 | 0.0 | 0.0 | 0.00 | 0.00 | 0.00 | 74 | 1018.2 |
| 20260502052124 | 46 | 0 | 0.0 | 0.0 | 0.00 | 0.00 | 0.00 | 74 | 1018.1 |
| 20260502051627 | 46 | 0 | 0.0 | 0.0 | 0.00 | 0.00 | 0.00 | 74 | 1018.1 |
| 20260502051048 | 46 | 0 | 0.0 | 0.0 | 0.00 | 0.00 | 0.00 | 73 | 1018.0 |
| 20260502050605 | 46 | 0 | 0.0 | 0.0 | 0.00 | 0.00 | 0.00 | 73 | 1018.1 |
| 20260502050056 | 46 | 0 | 0.0 | 0.0 | 0.00 | 0.00 | 0.00 | 74 | 1018.0 |
| 20260502045549 | 46 | 0 | 0.0 | 1.0 | 0.00 | 0.00 | 0.00 | 74 | 1018.1 |
| 20260502045042 | 46 | 0 | 0.0 | 1.0 | 0.00 | 0.00 | 0.00 | 74 | 1018.1 |
| 20260502044550 | 46 | 0 | 0.0 | 0.0 | 0.00 | 0.00 | 0.00 | 75 | 1018.1 |
| 20260502044043 | 46 | 0 | 0.0 | 0.0 | 0.00 | 0.00 | 0.00 | 73 | 1018.1 |
| 20260502043543 | 46 | 0 | 0.0 | 0.0 | 0.00 | 0.00 | 0.00 | 71 | 1018.0 |
| 20260502043103 | 47 | 0 | 0.0 | 0.0 | 0.00 | 0.00 | 0.00 | 72 | 1018.1 |
| 20260502042544 | 47 | 0 | 0.0 | 0.0 | 0.00 | 0.00 | 0.00 | 71 | 1018.1 |
| 20260502042043 | 47 | 0 | 0.0 | 0.0 | 0.00 | 0.00 | 0.00 | 70 | 1018.2 |
| 20260502041553 | 46 | 0 | 0.0 | 0.0 | 0.00 | 0.00 | 0.00 | 70 | 1018.2 |
| 20260502041043 | 47 | 0 | 0.0 | 0.0 | 0.00 | 0.00 | 0.00 | 70 | 1018.2 |
| 20260502040543 | 47 | 0 | 0.0 | 0.0 | 0.00 | 0.00 | 0.00 | 70 | 1018.3 |
| 20260502035543 | 47 | 0 | 0.0 | 0.0 | 0.00 | 0.00 | 0.00 | 69 | 1018.4 |
| 20260502035044 | 47 | 0 | 0.0 | 0.0 | 0.00 | 0.00 | 0.00 | 68 | 1018.5 |
| 20260502034556 | 47 | 0 | 0.0 | 0.0 | 0.00 | 0.00 | 0.00 | 68 | 1018.5 |
| 20260502034048 | 47 | 0 | 0.0 | 0.0 | 0.00 | 0.00 | 0.00 | 67 | 1018.5 |
| 20260502033543 | 47 | 0 | 0.0 | 0.0 | 0.00 | 0.00 | 0.00 | 67 | 1018.6 |
| 20260502033058 | 47 | 0 | 0.0 | 1.0 | 0.00 | 0.00 | 0.00 | 67 | 1018.6 |
| 20260502032543 | 47 | 0 | 0.0 | 1.0 | 0.00 | 0.00 | 0.00 | 67 | 1018.6 |
| 20260502032045 | 47 | 0 | 0.0 | 0.0 | 0.00 | 0.00 | 0.00 | 66 | 1018.7 |
| 20260502031558 | 47 | 0 | 0.0 | 0.0 | 0.00 | 0.00 | 0.00 | 65 | 1018.6 |
| 20260502031043 | 48 | 0 | 0.0 | 0.0 | 0.00 | 0.00 | 0.00 | 67 | 1018.7 |
| 20260502030543 | 48 | 0 | 0.0 | 0.0 | 0.00 | 0.00 | 0.00 | 66 | 1018.6 |
| 20260502030104 | 48 | 0 | 0.0 | 0.0 | 0.00 | 0.00 | 0.00 | 67 | 1018.7 |
| 20260502025547 | 48 | 0 | 0.0 | 0.0 | 0.00 | 0.00 | 0.00 | 68 | 1018.7 |
| 20260502025044 | 48 | 0 | 0.0 | 0.0 | 0.00 | 0.00 | 0.00 | 65 | 1018.6 |
| 20260502024550 | 48 | 0 | 0.0 | 0.0 | 0.00 | 0.00 | 0.00 | 66 | 1018.5 |
| 20260502024047 | 48 | 0 | 0.0 | 0.0 | 0.00 | 0.00 | 0.00 | 67 | 1018.5 |
| 20260502023547 | 48 | 0 | 0.0 | 0.0 | 0.00 | 0.00 | 0.00 | 68 | 1018.5 |
| 20260502023107 | 48 | 0 | 0.0 | 0.0 | 0.00 | 0.00 | 0.00 | 70 | 1018.4 |
| 20260502022543 | 48 | 0 | 0.0 | 0.0 | 0.00 | 0.00 | 0.00 | 66 | 1018.4 |
| 20260502022045 | 49 | 0 | 0.0 | 0.0 | 0.00 | 0.00 | 0.00 | 64 | 1018.4 |
| 20260502021550 | 49 | 0 | 0.0 | 0.0 | 0.00 | 0.00 | 0.00 | 61 | 1018.3 |
| 20260502021044 | 49 | 0 | 0.0 | 0.0 | 0.00 | 0.00 | 0.00 | 60 | 1018.3 |
| 20260502020544 | 49 | 0 | 0.0 | 0.0 | 0.00 | 0.00 | 0.00 | 60 | 1018.2 |
| 20260502020105 | 50 | 0 | 0.0 | 0.0 | 0.00 | 0.00 | 0.00 | 59 | 1018.2 |
| 20260502015544 | 50 | 0 | 0.0 | 0.0 | 0.00 | 0.00 | 0.00 | 62 | 1018.1 |
| 20260502015045 | 50 | 0 | 0.0 | 0.0 | 0.00 | 0.00 | 0.00 | 57 | 1018.1 |
| 20260502014554 | 51 | 0 | 0.0 | 0.0 | 0.00 | 0.00 | 0.00 | 57 | 1018.0 |
| 20260502014045 | 52 | 0 | 0.0 | 0.0 | 0.00 | 0.00 | 0.00 | 51 | 1017.9 |
| 20260502013542 | 52 | 0 | 0.0 | 0.0 | 0.00 | 0.00 | 0.00 | 51 | 1017.8 |
| 20260502013102 | 52 | 0 | 0.0 | 0.0 | 0.00 | 0.00 | 0.00 | 49 | 1017.8 |
| 20260502012542 | 53 | 0 | 0.0 | 0.0 | 0.00 | 0.00 | 0.00 | 49 | 1017.7 |
| 20260502012043 | 53 | 0 | 0.0 | 0.0 | 0.00 | 0.00 | 0.00 | 49 | 1017.7 |
| 20260502011559 | 53 | 0 | 0.0 | 0.0 | 0.00 | 0.00 | 0.00 | 48 | 1017.6 |
| 20260502011043 | 54 | 0 | 0.0 | 0.0 | 0.00 | 0.00 | 0.00 | 47 | 1017.5 |
| 20260502010542 | 55 | 0 | 0.0 | 0.0 | 0.00 | 0.00 | 0.00 | 48 | 1017.5 |
| 20260502010053 | 55 | 0 | 0.0 | 0.0 | 0.00 | 0.00 | 0.00 | 45 | 1017.3 |
| 20260502005547 | 56 | 0 | 0.0 | 1.0 | 0.00 | 0.00 | 0.00 | 43 | 1017.3 |
| 20260502005046 | 56 | 0 | 0.0 | 1.0 | 0.00 | 0.00 | 0.00 | 42 | 1017.2 |
| 20260502004611 | 57 | 0 | 0.0 | 1.0 | 0.00 | 0.00 | 0.00 | 42 | 1017.2 |
| 20260502004043 | 57 | 325 | 0.0 | 3.0 | 0.00 | 0.00 | 0.00 | 40 | 1017.0 |
| 20260502003541 | 57 | 0 | 0.0 | 3.0 | 0.00 | 0.00 | 0.00 | 41 | 1017.0 |
| 20260502003057 | 58 | 294 | 1.0 | 5.0 | 0.00 | 0.00 | 0.00 | 39 | 1016.9 |
| 20260502002545 | 58 | 324 | 1.0 | 6.0 | 0.00 | 0.00 | 0.00 | 41 | 1016.8 |
| 20260502002046 | 58 | 323 | 0.0 | 6.0 | 0.00 | 0.00 | 0.00 | 39 | 1016.8 |
| 20260502001609 | 59 | 352 | 2.0 | 5.0 | 0.00 | 0.00 | 0.00 | 36 | 1016.7 |
| 20260502001045 | 59 | 311 | 2.0 | 5.0 | 0.00 | 0.00 | 0.00 | 37 | 1016.7 |
| 20260502000545 | 59 | 0 | 1.0 | 4.0 | 0.00 | 0.00 | 0.00 | 38 | 1016.7 |
| 20260502000101 | 59 | 38 | 1.0 | 11.0 | 0.00 | 0.00 | 0.00 | 35 | 1016.8 |
| 20260501235545 | 60 | 302 | 2.0 | 11.0 | 0.00 | 0.00 | 0.00 | 36 | 1016.7 |
| 20260501235046 | 60 | 11 | 5.0 | 11.0 | 0.00 | 0.00 | 0.00 | 37 | 1016.7 |
| 20260501234606 | 60 | 334 | 3.0 | 8.0 | 0.00 | 0.00 | 0.00 | 35 | 1016.8 |
| 20260501234046 | 60 | 9 | 3.0 | 11.0 | 0.00 | 0.00 | 0.00 | 33 | 1016.8 |
| 20260501233545 | 60 | 323 | 5.0 | 11.0 | 0.00 | 0.00 | 0.00 | 34 | 1016.9 |
| 20260501233057 | 60 | 302 | 4.0 | 14.0 | 0.00 | 0.00 | 0.00 | 34 | 1016.9 |
| 20260501232548 | 60 | 321 | 8.0 | 14.0 | 0.00 | 0.00 | 0.00 | 34 | 1016.8 |
| 20260501232041 | 60 | 327 | 7.0 | 12.0 | 0.00 | 0.00 | 0.00 | 32 | 1016.7 |
| 20260501231555 | 60 | 313 | 5.0 | 12.0 | 0.00 | 0.00 | 0.00 | 35 | 1016.6 |
| 20260501231042 | 60 | 10 | 3.0 | 9.0 | 0.00 | 0.00 | 0.00 | 35 | 1016.7 |
| 20260501230546 | 60 | 15 | 4.0 | 10.0 | 0.00 | 0.00 | 0.00 | 36 | 1016.7 |
| 20260501230053 | 60 | 320 | 3.0 | 10.0 | 0.00 | 0.00 | 0.00 | 37 | 1016.7 |
| 20260501225542 | 60 | 351 | 4.0 | 9.0 | 0.00 | 0.00 | 0.00 | 37 | 1016.7 |
| 20260501225045 | 60 | 294 | 4.0 | 9.0 | 0.00 | 0.00 | 0.00 | 37 | 1016.6 |
| 20260501224551 | 60 | 312 | 3.0 | 8.0 | 0.00 | 0.00 | 0.00 | 38 | 1016.6 |
| 20260501224045 | 60 | 292 | 3.0 | 10.0 | 0.00 | 0.00 | 0.00 | 37 | 1016.7 |
| 20260501223543 | 60 | 10 | 4.0 | 10.0 | 0.00 | 0.00 | 0.00 | 37 | 1016.8 |
| 20260501223052 | 60 | 346 | 5.0 | 13.0 | 0.00 | 0.00 | 0.00 | 35 | 1016.7 |
| 20260501222545 | 61 | 296 | 4.0 | 13.0 | 0.00 | 0.00 | 0.00 | 37 | 1016.6 |
| 20260501222046 | 61 | 343 | 7.0 | 13.0 | 0.00 | 0.00 | 0.00 | 36 | 1016.6 |
| 20260501221552 | 61 | 294 | 5.0 | 13.0 | 0.00 | 0.00 | 0.00 | 37 | 1016.5 |
| 20260501221044 | 60 | 303 | 5.0 | 16.0 | 0.00 | 0.00 | 0.00 | 38 | 1016.6 |
| 20260501220544 | 61 | 323 | 8.0 | 16.0 | 0.00 | 0.00 | 0.00 | 36 | 1016.7 |
| 20260501220136 | 61 | 298 | 6.0 | 15.0 | 0.00 | 0.00 | 0.00 | 36 | 1016.6 |
| 20260501215544 | 60 | 341 | 5.0 | 15.0 | 0.00 | 0.00 | 0.00 | 37 | 1016.6 |
| 20260501215044 | 60 | 294 | 7.0 | 15.0 | 0.00 | 0.00 | 0.00 | 36 | 1016.6 |
| 20260501214556 | 60 | 24 | 7.0 | 17.0 | 0.00 | 0.00 | 0.00 | 35 | 1016.6 |
| 20260501214043 | 61 | 300 | 7.0 | 17.0 | 0.00 | 0.00 | 0.00 | 37 | 1016.6 |
| 20260501213544 | 61 | 13 | 6.0 | 17.0 | 0.00 | 0.00 | 0.00 | 35 | 1016.7 |
| 20260501213102 | 61 | 313 | 5.0 | 11.0 | 0.00 | 0.00 | 0.00 | 37 | 1016.8 |
| 20260501212543 | 61 | 21 | 3.0 | 8.0 | 0.00 | 0.00 | 0.00 | 37 | 1017.0 |
| 20260501212043 | 61 | 333 | 3.0 | 8.0 | 0.00 | 0.00 | 0.00 | 36 | 1017.1 |
| 20260501211552 | 61 | 313 | 3.0 | 11.0 | 0.00 | 0.00 | 0.00 | 33 | 1017.2 |
| 20260501211045 | 61 | 296 | 4.0 | 11.0 | 0.00 | 0.00 | 0.00 | 38 | 1017.2 |
| 20260501210543 | 60 | 346 | 5.0 | 11.0 | 0.00 | 0.00 | 0.00 | 36 | 1017.3 |
| 20260501210106 | 60 | 307 | 3.0 | 9.0 | 0.00 | 0.00 | 0.00 | 38 | 1017.4 |
| 20260501205543 | 60 | 289 | 3.0 | 12.0 | 0.00 | 0.00 | 0.00 | 34 | 1017.5 |
| 20260501205043 | 60 | 279 | 3.0 | 12.0 | 0.00 | 0.00 | 0.00 | 39 | 1017.6 |
| 20260501204556 | 59 | 63 | 7.0 | 11.0 | 0.00 | 0.00 | 0.00 | 37 | 1017.7 |
| 20260501204044 | 59 | 327 | 2.0 | 7.0 | 0.00 | 0.00 | 0.00 | 34 | 1017.9 |
| 20260501203544 | 60 | 302 | 4.0 | 7.0 | 0.00 | 0.00 | 0.00 | 37 | 1018.1 |
| 20260501203102 | 59 | 286 | 2.0 | 9.0 | 0.00 | 0.00 | 0.00 | 37 | 1018.0 |
| 20260501202544 | 59 | 346 | 2.0 | 9.0 | 0.00 | 0.00 | 0.00 | 38 | 1018.2 |
| 20260501202043 | 59 | 326 | 4.0 | 9.0 | 0.00 | 0.00 | 0.00 | 36 | 1018.3 |
| 20260501201604 | 60 | 264 | 2.0 | 11.0 | 0.00 | 0.00 | 0.00 | 36 | 1018.4 |
| 20260501201043 | 60 | 295 | 4.0 | 11.0 | 0.00 | 0.00 | 0.00 | 35 | 1018.4 |
| 20260501200542 | 60 | 16 | 5.0 | 11.0 | 0.00 | 0.00 | 0.00 | 36 | 1018.6 |
| 20260501200057 | 60 | 317 | 4.0 | 12.0 | 0.00 | 0.00 | 0.00 | 38 | 1018.7 |
| 20260501195543 | 60 | 312 | 3.0 | 12.0 | 0.00 | 0.00 | 0.00 | 37 | 1018.9 |
| 20260501195044 | 60 | 298 | 6.0 | 12.0 | 0.00 | 0.00 | 0.00 | 34 | 1018.8 |
| 20260501194557 | 61 | 289 | 4.0 | 9.0 | 0.00 | 0.00 | 0.00 | 38 | 1018.9 |
| 20260501194043 | 60 | 254 | 3.0 | 9.0 | 0.00 | 0.00 | 0.00 | 37 | 1018.9 |
| 20260501193544 | 60 | 341 | 0.0 | 11.0 | 0.00 | 0.00 | 0.00 | 36 | 1019.0 |
| 20260501193052 | 60 | 0 | 3.0 | 11.0 | 0.00 | 0.00 | 0.00 | 35 | 1019.2 |
| 20260501192543 | 60 | 13 | 5.0 | 11.0 | 0.00 | 0.00 | 0.00 | 37 | 1019.2 |
| 20260501192043 | 59 | 343 | 3.0 | 9.0 | 0.00 | 0.00 | 0.00 | 38 | 1019.2 |
| 20260501191601 | 60 | 294 | 3.0 | 10.0 | 0.00 | 0.00 | 0.00 | 34 | 1019.1 |
| 20260501191043 | 59 | 306 | 5.0 | 10.0 | 0.00 | 0.00 | 0.00 | 43 | 1019.2 |
| 20260501190543 | 59 | 299 | 3.0 | 13.0 | 0.00 | 0.00 | 0.00 | 46 | 1019.3 |
| 20260501190103 | 59 | 328 | 6.0 | 14.0 | 0.00 | 0.00 | 0.00 | 38 | 1019.2 |
| 20260501185544 | 59 | 360 | 6.0 | 14.0 | 0.00 | 0.00 | 0.00 | 35 | 1019.2 |
| 20260501185043 | 59 | 25 | 4.0 | 14.0 | 0.00 | 0.00 | 0.00 | 36 | 1019.4 |
| 20260501184554 | 58 | 240 | 2.0 | 10.0 | 0.00 | 0.00 | 0.00 | 33 | 1019.3 |
| 20260501184047 | 59 | 310 | 4.0 | 9.0 | 0.00 | 0.00 | 0.00 | 35 | 1019.3 |
| 20260501183545 | 59 | 20 | 2.0 | 9.0 | 0.00 | 0.00 | 0.00 | 40 | 1019.4 |
| 20260501183104 | 59 | 0 | 2.0 | 9.0 | 0.00 | 0.00 | 0.00 | 37 | 1019.5 |
| 20260501182542 | 59 | 287 | 4.0 | 10.0 | 0.00 | 0.00 | 0.00 | 39 | 1019.5 |
| 20260501182047 | 59 | 316 | 2.0 | 10.0 | 0.00 | 0.00 | 0.00 | 36 | 1019.5 |
| 20260501181605 | 59 | 321 | 5.0 | 10.0 | 0.00 | 0.00 | 0.00 | 35 | 1019.5 |
| 20260501181043 | 59 | 288 | 1.0 | 9.0 | 0.00 | 0.00 | 0.00 | 39 | 1019.4 |
| 20260501180543 | 58 | 74 | 2.0 | 10.0 | 0.00 | 0.00 | 0.00 | 40 | 1019.5 |
| 20260501180057 | 58 | 348 | 4.0 | 10.0 | 0.00 | 0.00 | 0.00 | 38 | 1019.5 |
| 20260501175547 | 58 | 311 | 3.0 | 7.0 | 0.00 | 0.00 | 0.00 | 42 | 1019.5 |
| 20260501175047 | 57 | 283 | 2.0 | 6.0 | 0.00 | 0.00 | 0.00 | 42 | 1019.5 |
| 20260501174553 | 58 | 342 | 3.0 | 6.0 | 0.00 | 0.00 | 0.00 | 38 | 1019.6 |
| 20260501174045 | 59 | 309 | 2.0 | 5.0 | 0.00 | 0.00 | 0.00 | 38 | 1019.6 |
| 20260501173543 | 59 | 111 | 1.0 | 14.0 | 0.00 | 0.00 | 0.00 | 37 | 1019.7 |
| 20260501173107 | 58 | 309 | 2.0 | 14.0 | 0.00 | 0.00 | 0.00 | 39 | 1019.7 |
| 20260501172545 | 58 | 17 | 4.0 | 11.0 | 0.00 | 0.00 | 0.00 | 40 | 1019.7 |
| 20260501172043 | 58 | 34 | 2.0 | 7.0 | 0.00 | 0.00 | 0.00 | 37 | 1019.6 |
| 20260501171559 | 57 | 321 | 3.0 | 11.0 | 0.00 | 0.00 | 0.00 | 41 | 1019.7 |
| 20260501171045 | 57 | 290 | 1.0 | 11.0 | 0.00 | 0.00 | 0.00 | 40 | 1019.7 |
| 20260501170543 | 57 | 30 | 4.0 | 11.0 | 0.00 | 0.00 | 0.00 | 39 | 1019.7 |
| 20260501170100 | 57 | 351 | 2.0 | 9.0 | 0.00 | 0.00 | 0.00 | 41 | 1019.7 |
| 20260501165548 | 57 | 0 | 3.0 | 12.0 | 0.00 | 0.00 | 0.00 | 37 | 1019.7 |
| 20260501165044 | 57 | 289 | 5.0 | 12.0 | 0.00 | 0.00 | 0.00 | 39 | 1019.8 |
| 20260501164550 | 57 | 346 | 6.0 | 12.0 | 0.00 | 0.00 | 0.00 | 39 | 1019.6 |
| 20260501164044 | 57 | 23 | 3.0 | 9.0 | 0.00 | 0.00 | 0.00 | 47 | 1019.7 |
| 20260501163544 | 57 | 0 | 2.0 | 7.0 | 0.00 | 0.00 | 0.00 | 44 | 1019.8 |
| 20260501163055 | 57 | 314 | 1.0 | 8.0 | 0.00 | 0.00 | 0.00 | 45 | 1019.7 |
| 20260501162541 | 56 | 0 | 2.0 | 8.0 | 0.00 | 0.00 | 0.00 | 41 | 1019.7 |
| 20260501162042 | 56 | 315 | 1.0 | 8.0 | 0.00 | 0.00 | 0.00 | 41 | 1019.8 |
| 20260501161555 | 56 | 344 | 2.0 | 8.0 | 0.00 | 0.00 | 0.00 | 40 | 1019.9 |
| 20260501161044 | 56 | 320 | 3.0 | 9.0 | 0.00 | 0.00 | 0.00 | 43 | 1019.8 |